KN4CGX Weather Reports


Display with metric or nautical units.
time (UTC)temp
F
wind
direction
speed
MPH
gust
MPH
rain 1hr
in
rain 24hr
in
rain mn
in
humidity
%
barometer
mb
20260503223032 75 139 0.0 7.0 0.00 0.00 0.00 35 1017.7
20260503221533 76 8 2.0 10.0 0.00 0.00 0.00 35 1017.7
20260503220029 75 37 4.0 8.0 0.00 0.00 0.00 34 1017.9
20260503214540 76 32 3.0 8.0 0.00 0.00 0.00 33 1018.0
20260503213031 77 13 1.0 7.0 0.00 0.00 0.00 34 1018.2
20260503211534 76 81 2.0 8.0 0.00 0.00 0.00 32 1018.3
20260503210033 76 23 6.0 11.0 0.00 0.00 0.00 29 1018.6
20260503204534 77 340 3.0 11.0 0.00 0.00 0.00 30 1018.7
20260503203036 77 30 3.0 7.0 0.00 0.00 0.00 31 1018.8
20260503201532 76 30 3.0 11.0 0.00 0.00 0.00 31 1019.0
20260503200037 76 39 3.0 11.0 0.00 0.00 0.00 32 1019.2
20260503194532 75 27 5.0 10.0 0.00 0.00 0.00 31 1019.4
20260503193036 76 33 6.0 11.0 0.00 0.00 0.00 31 1019.8
20260503191531 75 16 5.0 13.0 0.00 0.00 0.00 31 1020.0
20260503190032 75 338 4.0 8.0 0.00 0.00 0.00 31 1020.3
20260503184540 76 35 4.0 13.0 0.00 0.00 0.00 32 1020.6
20260503183035 76 342 3.0 6.0 0.00 0.00 0.00 32 1020.7
20260503181530 74 10 5.0 16.0 0.00 0.00 0.00 35 1020.8
20260503180044 73 1 6.0 11.0 0.00 0.00 0.00 36 1020.9
20260503174543 73 18 3.0 11.0 0.00 0.00 0.00 33 1020.8
20260503173039 73 62 6.0 9.0 0.00 0.00 0.00 32 1021.1
20260503171533 72 40 5.0 12.0 0.00 0.00 0.00 30 1021.5
20260503081538 47 0 0.0 0.0 0.00 0.49 0.00 89 1019.7
20260503071528 48 0 0.0 0.0 0.00 0.60 0.00 88 1019.4
20260503054531 50 0 0.0 0.0 0.00 0.93 0.00 87 1019.1
20260503053028 50 0 0.0 0.0 0.00 0.93 0.00 87 1019.1
20260503051536 50 0 0.0 0.0 0.00 0.93 0.00 86 1019.1
20260503050030 51 0 0.0 0.0 0.00 0.93 0.00 85 1018.9
20260503044532 51 0 0.0 0.0 0.00 0.94 0.93 86 1018.9
20260503043029 51 0 0.0 1.0 0.00 0.94 0.93 84 1018.7
20260503041527 52 0 0.0 0.0 0.00 0.94 0.93 83 1018.6
20260503040028 53 0 0.0 0.0 0.00 0.94 0.93 80 1018.7
20260503034529 53 0 0.0 0.0 0.00 1.03 0.93 79 1018.5
20260503033036 53 0 0.0 0.0 0.00 1.03 0.93 78 1018.4
20260503031532 54 0 0.0 0.0 0.00 1.03 0.93 75 1018.2
20260503030047 55 0 0.0 0.0 0.00 1.03 0.93 74 1018.1
20260503024533 56 0 0.0 0.0 0.00 1.33 0.93 70 1018.1
20260503023033 57 0 0.0 0.0 0.00 1.33 0.93 71 1017.8
20260503021531 58 0 0.0 0.0 0.00 1.33 0.93 67 1017.7
20260503020028 59 0 0.0 2.0 0.00 1.33 0.93 64 1017.4
20260503014528 60 0 0.0 1.0 0.00 1.40 0.93 63 1017.3
20260503013029 60 0 0.0 2.0 0.00 1.40 0.93 62 1017.1
20260503011530 60 347 0.0 1.0 0.00 1.40 0.93 62 1016.9
20260503010028 62 331 0.0 2.0 0.00 1.40 0.93 60 1016.6
20260503004527 63 340 0.0 2.0 0.00 1.50 0.93 54 1016.2
20260503003030 65 353 0.0 3.0 0.00 1.50 0.93 50 1015.9
20260503001529 66 359 4.0 7.0 0.00 1.50 0.93 46 1015.6
20260503000032 67 357 3.0 11.0 0.00 1.50 0.93 45 1015.4
20260502234530 68 354 3.0 12.0 0.00 1.76 0.93 43 1015.1
20260502233028 69 39 3.0 11.0 0.00 1.76 0.93 45 1014.8
20260502231527 69 347 4.0 16.0 0.00 1.76 0.93 46 1014.7
20260502230031 70 33 4.0 13.0 0.00 1.76 0.93 47 1014.5
20260502224531 70 15 6.0 12.0 0.00 1.79 0.93 43 1014.5